Location: Ammerl�gen
(47.2167°N, 9.6000°E)
Time: 03:10:21
(UTC+00:00)

ISS - Pass Details

Date: 02 October 2021
Orbit: 417 x 423 km, 51.6° (Epoch: 25 October)

Event Time Altitude Azimuth Distance (km) Brightness Sun altitude
Rises 19:06:10 0° 291° (WNW) 2,367 1.6 -22.1°
Reaches altitude 10° 19:08:25 10° 280° (W) 1,501 0.1 -22.5°
Enters shadow 19:11:07 29° 229° (SW) 796 -2.2 -22.9°
